Torna al catalogo

METEOR 2-20 DEB

AttivoPO
NORAD 59998·DEBRIS·🇷🇺 Russia

Lanciato Sep 28, 1990 da Plesetsk Cosmodrome

Loading…

Prossimi Passaggi (prossime 24 ore)

TLE

AggiornatoSource: Space-Track

Epoca: Sep 14, 2026, 01:15 UTC

1 59998U 90086H   26257.05272812  .00000734  00000-0  58418-3 0  9995
2 59998  82.5311 122.8742 0017072 119.4133 240.8737 13.89842920129815

Traccia METEOR 2-20 DEB in tempo reale con AllMySat

Download on the App Store